GSAT0221 (GALILEO 25)

Last updated on Wed Sep 09 2026 00:02:49 GMT+0000 (Coordinated Universal Time)

1 43564U 18060A 26251.35983376 -.00000099 00000+0 00000+0 0 9994 2 43564 57.1358 339.5352 0004258 269.8934 90.0970 1.70476185 50585
UTC large
Height (km)
Speed (km/s)
/
Latitude / Longitude
Inclination (degrees)
Orbital Period (minutes)
Azimuth
Elevation
Range (km)
Doppler Factor

Next 0 passes for location: London (51.5072 / 0.1276)

No passes found over London.
GSAT0221 (GALILEO 25)